Regional Weather Roundup
Issued by NWS

Home | Current Version | Previous Version | Text Only | Print | Product List | Glossary Off
Versions: 1 2 3 4 5 6 7 8 9 10 11 12 13 14 15 16 17 18 19 20 21 22 23 24 25 26 27 28 29 30 31 32 33 34 35 36 37 38 39 40 41 42 43 44 45 46 47 48 49 50

000
ASUS43 KFSD 282210
RWRSD

WEATHER ROUNDUP FOR SOUTH DAKOTA
NATIONAL WEATHER SERVICE SIOUX FALLS SD
500 PM CDT THU AUG 28 2014

NOTE: "FAIR" INDICATES FEW OR NO CLOUDS BELOW 12,000 FEET WITH NO
SIGNIFICANT WEATHER AND/OR OBSTRUCTIONS TO VISIBILITY.


SDZ001>005-009-010-012>017-282300-
NORTHWEST AND NORTH CENTRAL SOUTH DAKOTA

CITY           SKY/WX    TMP DP  RH WIND       PRES   REMARKS
BUFFALO          N/A     85  46  25 N13       29.84F
FAITH            N/A     76  63  64 CALM      29.91F
MOBRIDGE       LGT RAIN  70  67  90 NE5       29.85F
$$

SDZ012>016-024>037-041>051-057-063-072>074-282300-
SOUTHWEST AND SOUTH CENTRAL SOUTH DAKOTA

CITY           SKY/WX    TMP DP  RH WIND       PRES   REMARKS
RAPID CTY ARPT CLOUDY    77  52  41 CALM      29.95F
PIERRE         PTSUNNY   74  67  78 N12       29.85S
CUSTER         CLOUDY    66  54  65 VRB7      30.08F
ELLSWORTH AFB  CLOUDY    76  54  47 SE3       29.95F
PHILIP         CLOUDY    77  62  59 NW8       29.89F
PINE RIDGE     CLOUDY    68  57  68 W7        29.98F
WINNER         FAIR      79  65  62 NW9       29.85S
$$

SDZ004>011-016>023-039-040-282300-
NORTHEAST SOUTH DAKOTA

CITY           SKY/WX    TMP DP  RH WIND       PRES   REMARKS
ABERDEEN       CLOUDY    70  68  93 E9        29.87S
WATERTOWN      CLOUDY    68  66  93 E5        29.89F
SISSETON         N/A     67  66  97 S8        29.89F
$$

SDZ017-020-022-023-036>040-048>070-282300-
SOUTHEAST SOUTH DAKOTA

CITY           SKY/WX    TMP DP  RH WIND       PRES   REMARKS
SIOUX FALLS    CLOUDY    73  69  87 E13       29.87S
HURON          CLOUDY    72  67  84 E6        29.84S
CHAMBERLAIN    PTSUNNY   77  68  74 NW8       29.83F
MITCHELL       PTSUNNY   77  70  79 E8        29.82F
YANKTON        PTSUNNY   79  73  83 E9        29.81F
$$

ABBREVIATIONS USED IN REMARKS
   TC - TEMPERATURE IN CELSIUS
  WCI - WIND CHILL INDEX
   HX - HEAT INDEX
  VSB - VISIBILITY




USA.gov is the U.S. government's official web portal to all federal, state and local government web resources and services.